Time,TemperatureF,DewpointF,PressureIn,WindDirection,WindDirectionDegrees,WindSpeedMPH,WindSpeedGustMPH,Humidity,HourlyPrecipIn,Conditions,Clouds,dailyrainin,SolarRadiationWatts/m^2,SoftwareType,DateUTC
2013-10-01 17:42:00,59.0,48.0,-100.00,South,188,2.0,11.0,66,0.00,,,0.29,331.000000,,2013-10-02 00:42:00,
2013-10-01 17:52:00,59.0,48.0,-100.00,South,188,2.0,11.0,66,0.00,,,0.29,331.000000,,2013-10-02 00:52:00,
2013-10-01 18:01:00,59.0,48.0,-100.00,South,188,2.0,11.0,66,0.00,,,0.29,331.000000,,2013-10-02 01:01:00,
2013-10-01 18:42:00,56.0,47.0,-100.00,South,187,0.0,10.0,72,0.00,,,0.28,168.000000,,2013-10-02 01:42:00,
2013-10-01 18:52:00,56.0,47.0,-100.00,South,187,0.0,10.0,72,0.00,,,0.28,168.000000,,2013-10-02 01:52:00,
2013-10-01 19:02:00,56.0,47.0,-100.00,South,187,0.0,10.0,72,0.00,,,0.28,168.000000,,2013-10-02 02:02:00,
2013-10-01 19:42:00,53.0,49.0,-100.00,SW,220,0.0,5.0,86,0.00,,,0.28,21.000000,,2013-10-02 02:42:00,
2013-10-01 19:52:00,53.0,49.0,-100.00,SW,220,0.0,5.0,86,0.00,,,0.28,21.000000,,2013-10-02 02:52:00,
2013-10-01 20:02:00,53.0,49.0,-100.00,SW,220,0.0,5.0,86,0.00,,,0.28,21.000000,,2013-10-02 03:02:00,
2013-10-01 20:44:00,49.0,48.0,-100.00,ESE,111,0.0,3.0,95,0.00,,,0.19,0.000000,,2013-10-02 03:44:00,
2013-10-01 20:54:00,49.0,48.0,-100.00,ESE,111,0.0,3.0,95,0.00,,,0.19,0.000000,,2013-10-02 03:54:00,
2013-10-01 21:05:00,49.0,48.0,-100.00,ESE,111,0.0,3.0,95,0.00,,,0.19,0.000000,,2013-10-02 04:05:00,
2013-10-01 21:44:00,47.0,46.0,-100.00,SE,128,0.0,5.0,96,0.00,,,0.19,0.000000,,2013-10-02 04:44:00,
2013-10-01 21:54:00,47.0,46.0,-100.00,SE,128,0.0,5.0,96,0.00,,,0.19,0.000000,,2013-10-02 04:54:00,
2013-10-01 22:04:00,47.0,46.0,-100.00,SE,128,0.0,5.0,96,0.00,,,0.19,0.000000,,2013-10-02 05:04:00,
2013-10-01 22:43:00,49.0,48.0,-100.00,SE,138,0.0,4.0,97,0.00,,,0.19,0.000000,,2013-10-02 05:43:00,
2013-10-01 22:53:00,49.0,48.0,-100.00,SE,138,0.0,4.0,97,0.00,,,0.19,0.000000,,2013-10-02 05:53:00,
2013-10-01 23:03:00,49.0,48.0,-100.00,SE,138,0.0,4.0,97,0.00,,,0.19,0.000000,,2013-10-02 06:03:00,
2013-10-01 23:42:00,48.0,47.0,-100.00,ESE,118,0.0,4.0,95,0.00,,,0.17,0.000000,,2013-10-02 06:42:00,
2013-10-01 23:52:00,48.0,47.0,-100.00,ESE,118,0.0,4.0,95,0.00,,,0.17,0.000000,,2013-10-02 06:52:00,